Weather History for Lone Rock, WI

Change the Weather History Date:

Wednesday, July 10, 2013

  Actual Average Record
Temperature  
Mean Temperature 71 °F -  
Max Temperature 81 °F 80 °F 91 °F (2001)
Min Temperature 60 °F 58 °F 48 °F (1996)
Cooling Degree Days 6    
Growing Degree Days 21 (Base 50)    
Moisture  
Dew Point 61 °F    
Average Humidity 68    
Maximum Humidity 93    
Minimum Humidity 43    
Precipitation  
Precipitation 0.00 in - - ()
Sea Level Pressure  
Sea Level Pressure 29.93 in    
Wind  
Wind Speed 5 mph (WNW)    
Max Wind Speed 13 mph    
Max Gust Speed 22 mph    
Visibility 9 miles    
Events      
Averages and records for this station are not official NWS values.
T = Trace of Precipitation, MM = Missing Value Source: NWS Daily Summary

Daily Weather History Graph

Daily Weather History Graph

Search for Another Location

Airport:

Trip Planner

Search our weather history database for the weather conditions in past years. The results will help you decide how hot, cold, wet, or windy it might be!

Date:

Astronomy

Jul. 10, 2013 Rise Set
Actual Time 5:30 AM CDT 8:41 PM CDT
Civil Twilight 4:55 AM CDT 9:15 PM CDT
Nautical Twilight 4:11 AM CDT 10:00 PM CDT
Astronomical Twilight 3:17 AM CDT 10:54 PM CDT
Moon 7:56 AM CDT (7/10) 9:45 PM CDT (7/10)
Length of Visible Light 16h 19m
Length of Day
15h 10m
Waxing Crescent, 5% of the Moon is Illuminated
Jul 10
Waxing Crescent
Jul 15
First Quarter
Jul 22
Full
Jul 29
Last Quarter
Aug 6
New

Hourly Weather History & Observations

Time (CDT) Temp. Heat Index Dew Point Humidity Pressure Visibility Wind Dir Wind Speed Gust Speed Precip Events Conditions
12:56 AM 75.0 °F - 71.1 °F 87% 29.83 in 10.0 mi West 3.5 mph - N/A   Clear
1:56 AM 73.0 °F - 70.0 °F 90% 29.84 in 9.0 mi West 3.5 mph - N/A   Clear
2:56 AM 73.0 °F - 70.0 °F 90% 29.84 in 10.0 mi West 4.6 mph - N/A   Clear
3:56 AM 72.0 °F - 69.1 °F 91% 29.86 in 10.0 mi WNW 3.5 mph - N/A   Clear
4:56 AM 70.0 °F - 68.0 °F 93% 29.87 in 9.0 mi Calm Calm - N/A   Clear
5:56 AM 70.0 °F - 66.0 °F 87% 29.88 in 9.0 mi WNW 5.8 mph - N/A   Clear
6:56 AM 72.0 °F - 66.9 °F 84% 29.89 in 10.0 mi NW 6.9 mph - N/A   Clear
7:56 AM 73.0 °F - 66.0 °F 79% 29.89 in 10.0 mi NW 11.5 mph - N/A   Scattered Clouds
8:56 AM 75.0 °F - 63.0 °F 66% 29.93 in 10.0 mi NW 10.4 mph - N/A   Partly Cloudy
9:56 AM 73.0 °F - 60.1 °F 64% 29.94 in 10.0 mi NW 11.5 mph 19.6 mph N/A   Mostly Cloudy
10:56 AM 75.9 °F - 60.1 °F 58% 29.94 in 10.0 mi Variable 6.9 mph - N/A   Partly Cloudy
11:56 AM 77.0 °F - 57.0 °F 50% 29.95 in 10.0 mi Variable 6.9 mph 21.9 mph N/A   Partly Cloudy
12:56 PM 78.1 °F - 55.9 °F 46% 29.96 in 9.0 mi NNW 12.7 mph - N/A   Partly Cloudy
1:56 PM 79.0 °F - 55.0 °F 44% 29.97 in 8.0 mi West 6.9 mph - N/A   Clear
2:56 PM 79.0 °F - 55.0 °F 44% 29.97 in 8.0 mi WNW 9.2 mph - N/A   Partly Cloudy
3:56 PM 80.1 °F 80.2 °F 55.9 °F 43% 29.96 in 8.0 mi WNW 12.7 mph - N/A   Mostly Cloudy
4:56 PM 80.1 °F 80.2 °F 55.9 °F 43% 29.96 in 9.0 mi NW 10.4 mph - N/A   Scattered Clouds
5:56 PM 80.1 °F 80.2 °F 55.9 °F 43% 29.95 in 9.0 mi NNW 5.8 mph - N/A   Clear
6:56 PM 78.1 °F - 55.9 °F 46% 29.95 in 8.0 mi NW 5.8 mph - N/A   Clear
7:56 PM 73.9 °F - 57.0 °F 55% 29.96 in 8.0 mi NW 4.6 mph - N/A   Clear
8:56 PM 69.1 °F - 59.0 °F 70% 29.97 in 8.0 mi Calm Calm - N/A   Clear
9:56 PM 63.0 °F - 59.0 °F 87% 29.99 in 8.0 mi Calm Calm - N/A   Clear
10:56 PM 62.1 °F - 59.0 °F 90% 30.01 in 8.0 mi Calm Calm - N/A   Clear
11:56 PM 60.1 °F - 57.9 °F 93% 30.02 in 6.0 mi Calm Calm - N/A   Clear